Weather History for KOFK - January, 2012

Change the Weather History Date:

Monday, January 30, 2012

  Actual Average Record
Temperature  
Mean Temperature 49 °F 23 °F  
Max Temperature 67 °F 34 °F 67 °F (2012)
Min Temperature 30 °F 13 °F -25 °F (1902)
Degree Days  
Heating Degree Days 16 42  
Month to date heating degree days 1072 1279  
Since 1 July heating degree days 3556 3985  
Cooling Degree Days 0 0  
Month to date cooling degree days 0 0  
Year to date cooling degree days 0 0  
Moisture  
Dew Point 22 °F    
Average Humidity 41    
Maximum Humidity 63    
Minimum Humidity 18    
Precipitation  
Precipitation 0.00 in 0.02 in 0.40 in (1922)
Month to date precipitation 0.18 0.57  
Year to date precipitation 0.18 0.57  
Snow  
Snow 0.00 in 0.30 in - ()
Month to date snowfall 2.1 6.2  
Since 1 July snowfall 10.2 17.1  
Snow Depth 0.00 in    
Sea Level Pressure  
Sea Level Pressure 29.73 in    
Wind  
Wind Speed 10 mph (SW)    
Max Wind Speed 18 mph    
Max Gust Speed 24 mph    
Visibility 10 miles    
Events      
T = Trace of Precipitation, MM = Missing Value Source: NWS Daily Summary

Daily Weather History Graph

Daily Weather History Graph

Search for Another Location

Airport or City:

Trip Planner

Search our weather history database for the weather conditions in past years. The results will help you decide how hot, cold, wet, or windy it might be!

Date:

Astronomy

Jan. 30, 2012 Rise Set
Actual Time 7:44 AM CST 5:41 PM CST
Civil Twilight 7:15 AM CST 6:11 PM CST
Nautical Twilight 6:41 AM CST 6:44 PM CST
Astronomical Twilight 6:08 AM CST 7:17 PM CST
Moon 10:59 AM CST (1/30) 12:35 AM CST (1/30)
Length of Visible Light 10h 56m
Length of Day
9h 56m
Waxing Crescent, 46% of the Moon is Illuminated
Jan 30
Waxing Crescent
Jan 30
First Quarter
Feb 7
Full
Feb 14
Last Quarter
Feb 21
New

Hourly Weather History & Observations

Time (CST) Temp. Windchill Dew Point Humidity Pressure Visibility Wind Dir Wind Speed Gust Speed Precip Events Conditions
1:56 AM 46.0 °F 42.5 °F 19.9 °F 35% 29.81 in 10.0 mi SW 6.9 mph - N/A   Clear
2:56 AM 43.0 °F 40.3 °F 21.0 °F 42% 29.81 in 10.0 mi SW 4.6 mph - N/A   Clear
3:56 AM 41.0 °F 34.3 °F 21.0 °F 45% 29.79 in 10.0 mi SSW 11.5 mph - N/A   Clear
4:56 AM 37.9 °F 31.5 °F 21.0 °F 51% 29.77 in 10.0 mi WSW 9.2 mph - N/A   Clear
5:56 AM 35.1 °F 28.6 °F 21.0 °F 57% 29.77 in 10.0 mi SSW 8.1 mph - N/A   Clear
6:56 AM 33.1 °F 26.1 °F 21.0 °F 61% 29.78 in 10.0 mi WSW 8.1 mph - N/A   Clear
7:56 AM 30.0 °F 24.1 °F 19.9 °F 66% 29.80 in 10.0 mi WSW 5.8 mph - N/A   Clear
8:56 AM 41.0 °F - 21.9 °F 47% 29.78 in 10.0 mi Calm Calm - N/A   Clear
9:56 AM 46.9 °F - 23.0 °F 39% 29.75 in 10.0 mi West 10.4 mph - N/A   Clear
10:56 AM 52.0 °F - 23.0 °F 32% 29.75 in 10.0 mi West 8.1 mph - N/A   Clear
12:56 PM 62.1 °F - 24.1 °F 23% 29.70 in 10.0 mi SW 13.8 mph - N/A   Clear
1:56 PM 64.9 °F - 23.0 °F 20% 29.66 in 10.0 mi WSW 13.8 mph - N/A   Clear
2:56 PM 66.9 °F - 23.0 °F 19% 29.65 in 10.0 mi SW 15.0 mph - N/A   Clear
4:56 PM 60.1 °F - 23.0 °F 24% 29.65 in 10.0 mi South 8.1 mph - N/A   Clear
5:56 PM 53.1 °F - 21.9 °F 30% 29.66 in 10.0 mi South 9.2 mph - N/A   Clear
6:56 PM 53.1 °F - 21.9 °F 30% 29.68 in 10.0 mi SSW 11.5 mph - N/A   Clear
7:56 PM 54.0 °F - 21.0 °F 28% 29.68 in 10.0 mi SW 15.0 mph - N/A   Clear
8:56 PM 53.1 °F - 21.0 °F 29% 29.69 in 10.0 mi SW 13.8 mph - N/A   Clear
9:56 PM 51.1 °F - 21.0 °F 31% 29.69 in 10.0 mi SSW 12.7 mph - N/A   Clear
10:56 PM 51.1 °F - 19.9 °F 29% 29.69 in 10.0 mi SW 15.0 mph - N/A   Clear
11:56 PM 48.9 °F - 19.0 °F 31% 29.70 in 10.0 mi West 10.4 mph - N/A   Clear